sat.trackr.live / text

‹ back to catalog

STARLINK-4394

NORAD 53467 · 2022-099C

PAYLOAD ACTIVE UNKNOWN

§ Identity

Operator
Country
US
Launch date
2022-08-12
Launch site
AFWTR
Launch vehicle
Mass (kg)
RCS (m²)

Purposes: comms

External: N2YO · Heavens-Above · Gunter

§ Orbital elements

Epoch: 2026-05-25T06:00:02.000160Z

Period
93.27 min
Inclination
97.6032°
Eccentricity
0.0001646
Mean motion
15.43912991 rev/d
Perigee alt
433.5 km
Apogee alt
435.7 km
Semi-major
6,812.7 km
B*
4.1595e-3
RAAN
268.5073°
Arg perigee
68.5933°
Mean anomaly
128.4704°
Rev number
583

§ Raw data

STARLINK-43941 53467U 22099C   26145.25002315  .00193465  00000+0  41595-2 0  99962 53467  97.6032 268.5073 0001646  68.5933 128.4704 15.43912991  5832

JSON: /api/v1/satellites/53467 · /tle

For live sub-satellite position, see the globe view (requires WebGL).

§ Visibility from observer

Set your observer location to see the next 7 days of passes ≥ 10°. The values pass through the URL so the page stays shareable.

No JS? Fill the form by hand. The geolocation button needs JavaScript.